{"data":{"norad_id":67316,"intl_designator":"2026-002M","name":"STARLINK-36461","alt_names":[],"object_type":"PAYLOAD","status":"ACTIVE","operator":null,"country":"US","launch_date":"2026-01-04","launch_site_code":"AFETR","launch_vehicle":null,"mission":null,"orbit_class":"UNKNOWN","rcs_meters":null,"size_class":null,"mass_kg":null,"dimensions":null,"purposes":["comms"],"wikipedia_slug":null,"has_3d_model":false,"image_url":null,"decayed_at":null,"tle_current":{"epoch":"2026-05-25T00:08:17.035872Z","epoch_age_seconds":77852,"freshness":"FRESH","line1":"1 67316U 26002M   26145.00575273  .00012238  00000+0  45344-3 0  9998","line2":"2 67316  43.0010 253.9981 0001075 284.4637  75.6095 15.27583399 22915","mean_motion":15.27583399,"eccentricity":0.0001075,"inclination_deg":43.001,"raan_deg":253.9981,"arg_perigee_deg":284.4637,"mean_anomaly_deg":75.6095,"bstar":0.00045344,"rev_number":2291,"period_min":94.266538962303,"perigee_km":482.30134181853,"apogee_km":483.77649464095,"semimajor_km":6861.1759182297,"source":"CELESTRAK","updated_at":"2026-05-25T13:38:21.516932Z"}}}